{"data":{"norad_id":58145,"intl_designator":"2023-163E","name":"YAOGAN-39 04C","alt_names":[],"object_type":"PAYLOAD","status":"ACTIVE","operator":null,"country":"PRC","launch_date":"2023-10-23","launch_site_code":"XICLF","launch_vehicle":null,"mission":null,"orbit_class":"UNKNOWN","rcs_meters":null,"size_class":null,"mass_kg":null,"dimensions":null,"purposes":[],"wikipedia_slug":null,"has_3d_model":false,"image_url":null,"decayed_at":null,"tle_current":{"epoch":"2026-05-25T03:58:19.051392Z","epoch_age_seconds":56756,"freshness":"FRESH","line1":"1 58145U 23163E   26145.16549828  .00003174  00000+0  15615-3 0  9994","line2":"2 58145  34.9892 152.2430 0007495 197.5469 162.4986 15.17523634143824","mean_motion":15.17523634,"eccentricity":0.0007495,"inclination_deg":34.9892,"raan_deg":152.243,"arg_perigee_deg":197.5469,"mean_anomaly_deg":162.4986,"bstar":0.00015615,"rev_number":14382,"period_min":94.891438112522,"perigee_km":508.16248993384,"apogee_km":518.49279543323,"semimajor_km":6891.4646426835,"source":"CELESTRAK","updated_at":"2026-05-25T13:38:00.543938Z"}}}